SL-16 DEB

Satellite information

Favourite Embed

Satellite Type and Status

DEBRISIN ORBIT

Key statistics

Satellite SL-16 DEB at a glance.

Uptime

12042

Days in orbit

Revolutions

≈ 14.0

Per day

Orbit

LEO

Low Earth Orbit

Inclination

70.9

Latest

Satellite identification and parameters

Extended collection of information and parameters for SL-16 DEB.

Object identification

Identified? True

Debris? True

Object name: SL-16 DEB

International designator: 1992-093EX

Object number (NORAD): 22458

Object ID (CCSDS): 22458

Country: COMMONWEALTH OF INDEPENDENT STATES (CIS)

Current information (Y/N): Y

RCS size: SMALL

Orbital parameters

Period: 102.667 minutes

Inclination: 70.8517 deg

SMA: 7262.958 km

Apoapsis: 936.826 km

Periapsis: 832.82 km

RAAN: 205.0495 deg

Eccentricy: 0.00716004

Argument of periapsis: 155.1981 deg

Mean anomaly: 236.6806 deg

Mean motion: 14.02595566 rev/day

Mean motion (dot): 0.00000184 rev/day2

B* drag term: 0.00014677581 1/REarth

Two-line elements (TLE)

Creation date: Dec. 14, 2025, 3:07 a.m.

Reference frame: TEME

Reference center: EARTH

Epoch: Dec. 13, 2025, 2:42 p.m. UTC

TLE line 0: 0 SL-16 DEB

TLE line 1: 1 22458U 92093EX 25347.61314659 .00000184 00000-0 14678-3 0 9992

TLE line 2: 2 22458 70.8517 205.0495 0071600 155.1981 236.6806 14.02595566682785

Live tracking on map

Real-time ground track for satellite SL-16 DEB.

In-orbit conjunctions

A list of the most updated potential collisions computed for object SL-16 DEB.

Target Orbit TCA Probability of collision Miss distance Type
METEOR 2-11 DEB LEO 2024-12-01 15:13:22 0.000174815 329.0 (m) DEBRIS
SL-3 R/B LEO 2024-08-31 03:30:07 0.0001875397 341.0 (m) ROCKET BODY

Associated space launch

Second generation ELING satellite

SL-16 DEB was lifted into orbit during the mission ‘Zenit-2 | Tselina-2 12’, on board a Zenit-2 space rocket.

The launch took place on Dec. 25, 1992, 5:56 a.m. from 45/1.

For more information about the launch, click the button.

Launch to space Zenit-2 | Tselina-2 12
Zenit-2 | Tselina-2 12

Agency: N/A

Status: Launch Successful

Launch date: Dec. 25, 1992, 5:56 a.m. UTC

Rocket: Zenit-2

Launch pad: 45/1

Location: Baikonur Cosmodrome, Republic of Kazakhstan

...

Latest news about this satellite

There are no fresh news available about this satellite. Check back as we update our databases every day.


Newsletter sign-up

Weekly statistics, charts and insights to help you stay on top of the space industry.